[Iaude] MPEC A35: 2019 AM [a=1.92,e=0.48,i=14.6,H=22.9]

mpec at mpcdb1.cfa.harvard.edu mpec at mpcdb1.cfa.harvard.edu
Fri Jan 4 10:59:23 EST 2019


M.P.E.C. 2019-A35                                Issued 2019 Jan. 4, 15:54 UT
 
     The Minor Planet Electronic Circulars contain information on unusual
         minor planets and routine data on comets.  They are published
    on behalf of Division F of the International Astronomical Union by the
          Minor Planet Center, Smithsonian Astrophysical Observatory,
                          Cambridge, MA 02138, U.S.A.

             Prepared using the Tamkin Foundation Computer Network

                              MPC at CFA.HARVARD.EDU
            URL https://www.minorplanetcenter.net/    ISSN 1523-6714


                                    2019 AM
 
Observations:
     K19A00M* C2019 01 02.23604 00 52 29.201+30 34 17.16         20.6 wUEA035F51
     K19A00M  C2019 01 02.24768 00 52 30.693+30 36 25.24         20.8 wUEA035F51
     K19A00M  C2019 01 02.25925 00 52 32.184+30 38 31.75         21.0 wUEA035F51
     K19A00M KC2019 01 02.76541600 53 55.78 +32 10 59.7          20.9 GVEA035L01
     K19A00M KC2019 01 02.76584800 53 55.84 +32 11 04.0          20.8 GVEA035L01
     K19A00M KC2019 01 02.80144300 54 00.93 +32 17 32.1          20.7 GVEA035L01
     K19A00M KC2019 01 03.15351 00 54 59.87 +33 22 00.8          22.1 RoEA035291
     K19A00M KC2019 01 03.15742 00 55 00.55 +33 22 43.1                oEA035291
     K19A00M KC2019 01 03.16137 00 55 00.98 +33 23 26.6          22.0 RoEA035291
     K19A00M KC2019 01 03.75558 00 56 47.25 +35 10 46.3          21.2 GVEA035204
     K19A00M HC2019 01 03.77622 00 56 50.44 +35 14 26.8                VEA035204
     K19A00M KC2019 01 04.22447 00 58 09.18 +36 34 44.5          20.6 RoEA035291
     K19A00M KC2019 01 04.22714 00 58 09.63 +36 35 12.6          20.7 RoEA035291
     K19A00M KC2019 01 04.22980 00 58 10.07 +36 35 40.2          20.4 RoEA035291
 
Observer details:
204 Schiaparelli Observatory.  Observer L. Buzzi.  0.84-m f/3.5 reflector +
    CCD.
291 LPL/Spacewatch II.  Observer J. V. Scotti.  1.8-m f/2.7 reflector + CCD.
F51 Pan-STARRS 1, Haleakala.  Observers J. Bulger, T. Lowe, A. Schultz,
    M. Willman.  Measurers K. Chambers, S. Chastel, L. Denneau, J. Fairlamb,
    H. Flewelling, M. Huber, C.-C. Lin, E. Magnier, Y. Ramanjooloo,
    R. Wainscoat, R. Weryk.  1.8-m Ritchey-Chretien + CCD.
L01 Visnjan Observatory, Tican.  Observers K. Korlevic, R. Jenko, G. Kervina,
    P. Kukic, A. Radica.  Measurer K. Korlevic.  1.0-m f/2.9 reflector + CCD.
 
Orbital elements:
2019 AM                                                  Earth MOID = 0.0238 AU
Epoch 2019 Apr. 27.0 TT = JDT 2458600.5                 MPC
M  46.48913              (2000.0)            P               Q
n   0.37007285     Peri.  357.72435     +0.12574382     -0.95970177
a   1.9213710      Node    84.97804     +0.91413815     +0.01367084
e   0.4757027      Incl.   14.61289     +0.38540880     +0.28068776
P   2.66           H   22.9           G   0.15           U   6
Residuals in seconds of arc
190102 F51  0.0   0.4-    190102 L01  0.4-  0.6-    190103 204  0.1-  1.0-
190102 F51  0.1-  0.1-    190103 291  0.0   0.7-    190104 291  0.1-  0.3-
190102 F51  0.1-  0.5-    190103 291  1.4+  0.7-    190104 291  0.1-  0.2-
190102 L01  0.3-  0.1-    190103 291  0.4-  0.2+    190104 291  0.2-  0.5-
190102 L01  0.3-  0.5-    190103 204  0.2-  0.4+

Ephemeris:
2019 AM                  a,e,i = 1.92, 0.48, 15                  q = 1.0074
Date    TT    R. A. (2000) Decl.     Delta      r     Elong.  Phase     V
2018 12 05    00 18 56.1 -31 21 40   0.1970  1.0279    96.9    72.2    22.0
...
2018 12 20    00 29 15.3 -07 04 56   0.1381  1.0077    96.0    76.1    21.3
...
2018 12 28    00 40 52.4 +14 25 55   0.1212  1.0095    99.0    74.2    20.9
...
2019 01 03    00 54 36.2 +32 53 59   0.1209  1.0166   102.6    70.7    20.8
2019 01 04    00 57 32.0 +35 54 42   0.1220  1.0183   103.3    70.0    20.8
2019 01 05    01 00 41.8 +38 51 41   0.1234  1.0201   103.9    69.3    20.8
...
2019 01 11    01 26 11.3 +54 37 40   0.1380  1.0335   107.6    65.1    21.0
...
2019 01 19    02 29 58.9 +69 14 09   0.1696  1.0580   111.6    59.8    21.3
...
2019 02 03    06 38 43.9 +76 28 22   0.2483  1.1218   117.4    51.3    22.0

A. U. Tomatic                (C) Copyright 2019 MPC           M.P.E.C. 2019-A35



More information about the Iaude mailing list